Tiempo atmosférico en la estación meteorológica de Cartaya, Huelva (15 m.)



Fecha
DESCASC
Temp. máxima en grados centígrados (hora)
DESCASC
Temp. mínima en grados centígrados (hora)
DESCASC
Temp. media en grados centígrados
DESCASC
Racha de viento máxima en m/sg (hora)
DESCASC
Velocidad máxima media en intervalos de 10 minutos(hora)
DESCASC
Precipitaciones diarias en mm
DESCASC
Precipitaciones de 00:00 a 06:00 en mm
DESCASC
Precipitaciones de 06:00 a 12:00 en mm
DESCASC
Precipitaciones de 12:00 a 18:00 en mm
DESCASC
Precipitaciones de 18:00 a 24:00 en mm
DESCASC
18-01-2018 19.9 (15:10) 3.5 (08:30) 11.7 7.5 (12:10) 3.89 (11:20) 0 0 0 0 0
17-01-2018 20.8 (16:00) 5.6 (09:10) 13.2 7.78 (12:20) 3.61 (12:30) 0 0 0 0 0
16-01-2018 18.6 (15:40) 2.2 (07:30) 10.4 9.44 (17:20) 5 (17:20) 0 0 0 0 0
15-01-2018 16.3 (16:10) 1.6 (09:00) 8.9 7.22 (12:00) 3.33 (13:20) 0 0 0 0 0
14-01-2018 14.4 (15:20) 3.6 (00:00) 9 8.89 (13:30) 3.89 (13:30) 0.4 0.2 0.2 0 0
13-01-2018 15.8 (16:50) 4.9 (00:00) 10.4 8.06 (15:50) 3.33 (15:50) 15.6 0 15.2 0.4 0
12-01-2018 12.9 (15:50) 2.3 (00:00) 7.6 3.89 (10:10) 2.22 (11:00) 0 0 0 0 0
11-01-2018 17.1 (15:40) 2.6 (00:00) 9.9 9.44 (13:40) 4.72 (14:40) 0.2 0 0.2 0 0
10-01-2018 16.6 (15:00) 7.7 (00:00) 12.2 10.28 (18:30) 5.28 (16:10) 0 0 0 0 0
09-01-2018 15 (21:10) 1.2 (00:00) 8.1 10 (18:10) 5.28 (17:50) 19.8 0 0.6 17.4 1.8
08-01-2018 11.9 (15:50) 3.3 (00:00) 7.6 6.67 (12:50) 3.33 (13:50) 2.2 2 0.2 0 0
07-01-2018 12.4 (15:50) 1.4 (00:00) 6.9 6.67 (11:30) 3.61 (11:40) 0 0 0 0 0
06-01-2018 13.5 (15:20) 5.5 (00:00) 9.5 11.39 (12:00) 5.83 (13:50) 1 1 0 0 0
05-01-2018 16.2 (14:30) 10.1 (00:00) 13.2 16.39 (18:40) 7.22 (18:30) 13.6 0 0 0.2 13.4
04-01-2018 15.5 (14:30) 6.6 (05:30) 11 3.61 (20:10) 2.22 (20:10) 0 0 0 0 0
03-01-2018 19.9 (14:30) 7.4 (00:00) 13.6 9.17 (17:00) 4.17 (16:40) 0 0 0 0 0
02-01-2018 18.2 (15:40) 2.4 (00:00) 10.3 6.39 (15:50) 3.33 (16:20) 0 0 0 0 0
01-01-2018 17.5 (16:50) 3.9 (00:00) 10.7 5.28 (17:50) 2.78 (17:50) 0 0 0 0 0
31-12-2017 17.5 (16:00) 6.7 (00:00) 12.1 8.33 (17:30) 5.56 (17:30) 0 0 0 0 0
30-12-2017 20.8 (15:30) 9.3 (00:00) 15 4.17 (11:30) 2.5 (11:10) 0 0 0 0 0
29-12-2017 18.6 (14:40) 12.6 (00:00) 15.6 5.28 (14:10) 3.33 (16:30) 0 0 0 0 0
28-12-2017 19.8 (15:40) 12.8 (00:00) 16.3 10.56 (15:10) 4.44 (02:20) 0 0 0 0 0
27-12-2017 18 (16:20) 11.8 (00:00) 14.9 11.39 (04:00) 7.5 (06:40) 2 0 2 0 0
26-12-2017 14.8 (14:10) 9.6 (00:00) 12.2 -- (--) -- (--) -- -- 0 0 0
25-12-2017 16.2 (16:00) 9.7 (00:00) 13 -- (--) -- (--) 6.4 4.6 1.8 0 0
24-12-2017 17.7 (14:10) 7.1 (00:00) 12.4 7.5 (23:00) 5 (23:30) 0.4 0 0 0 0.4

Gráficas

Temp. máximas Temp. mínimas Temp. medias Precipitaciones Rachas de viento máximas Velocidades máximas media en intervalos de 10 minutos

Datos horarios

Fecha y hora oficial Temperatura (ºC) Velocidad del viento (km/h) Dirección del viento Racha (km/h) Dirección de racha Precipitación (mm) Presión (hPa) Tendencia (hPa) Humedad (%)
2018-01-22 23:00:00 7.4 6 Norte 12 Nordeste 0 -- -- 100
2018-01-22 22:00:00 5.3 5 Norte 7 Norte 0 -- -- 96
2018-01-22 21:00:00 7.7 0 Calma 3 Sudeste 0 -- -- 94
2018-01-22 20:00:00 10 2 Sudeste 18 Norte 0 -- -- 92
2018-01-22 19:00:00 11.5 8 Norte 23 Norte 0 -- -- 90
2018-01-22 18:00:00 13.5 10 Norte 22 Norte 0 -- -- 82
2018-01-22 17:00:00 14.9 11 Norte 23 Norte 0 -- -- 78
2018-01-22 16:00:00 15.9 10 Norte 23 Noroeste 0 -- -- 74
2018-01-22 15:00:00 16.3 13 Norte 23 Noroeste 0 -- -- 73
2018-01-22 14:00:00 16 8 Nordeste 15 Norte 0 -- -- 74
2018-01-22 13:00:00 14.6 5 Norte 18 Norte 0 -- -- 80
2018-01-22 12:00:00 11.8 11 Nordeste 21 Nordeste 0 -- -- 90
2018-01-22 11:00:00 10.2 6 Norte 18 Nordeste 0 -- -- 96
2018-01-22 10:00:00 9.7 7 Nordeste 19 Nordeste 0 -- -- 98
2018-01-22 09:00:00 9.4 6 Nordeste 17 Nordeste 0 -- -- 98
2018-01-22 08:00:00 9.6 5 Nordeste 20 Norte 0 -- -- 99
2018-01-22 07:00:00 10.1 9 Nordeste 20 Nordeste 0 -- -- 99
2018-01-22 06:00:00 9.2 8 Nordeste 18 Norte 0 -- -- 100
2018-01-22 05:00:00 9.3 8 Norte 21 Norte 0 -- -- 98
2018-01-22 04:00:00 9.4 12 Norte 20 Nordeste 0 -- -- 99
2018-01-22 03:00:00 9.5 10 Norte 22 Nordeste 0 -- -- 99
2018-01-22 02:00:00 9.8 10 Norte 18 Norte 0 -- -- 98
2018-01-22 01:00:00 10 8 Norte 17 Norte 0 -- -- 97
2018-01-22 00:00:00 10.6 10 Nordeste 22 Norte 0 -- -- 95
2018-01-21 23:00:00 10.9 10 Nordeste 20 Norte 0 -- -- 95
2018-01-21 22:00:00 11.6 4 Nordeste 17 Norte 0 -- -- 91
2018-01-21 21:00:00 11.3 6 Norte 12 Norte 0 -- -- 92
2018-01-21 20:00:00 12.6 4 Norte 13 Norte 0 -- -- 86
2018-01-21 19:00:00 14.2 8 Norte 18 Norte 0 -- -- 79
2018-01-21 18:00:00 16.6 7 Norte 20 Norte 0 -- -- 70
2018-01-21 17:00:00 17.6 10 Norte 21 Norte 0 -- -- 66
2018-01-21 16:00:00 17.6 9 Norte 25 Norte 0 -- -- 68
2018-01-21 15:00:00 16.9 10 Norte 23 Noroeste 0 -- -- 70
2018-01-21 14:00:00 16.2 11 Norte 26 Noroeste 0 -- -- 73
2018-01-21 13:00:00 14.7 12 Norte 24 Nordeste 0 -- -- 78
2018-01-21 12:00:00 13.2 13 Nordeste 27 Norte 0 -- -- 82
2018-01-21 11:00:00 11.4 8 Nordeste 19 Nordeste 0 -- -- 91
2018-01-21 10:00:00 9 8 Norte 17 Norte 0 -- -- 97
2018-01-21 09:00:00 7.5 4 Norte 14 Norte 0 -- -- 97
2018-01-21 08:00:00 8.1 6 Norte 23 Nordeste 0 -- -- 96
2018-01-21 07:00:00 8.1 7 Norte 16 Nordeste 0 -- -- 98
2018-01-21 06:00:00 8.3 5 Nordeste 20 Norte 0 -- -- 97
2018-01-21 05:00:00 8.4 9 Nordeste 19 Nordeste 0 -- -- 97
2018-01-21 04:00:00 8.9 12 Nordeste 22 Norte 0 -- -- 96
2018-01-21 03:00:00 9.4 11 Norte 24 Norte 0 -- -- 94
2018-01-21 02:00:00 9.2 9 Norte 17 Norte 0 -- -- 92
2018-01-21 01:00:00 9.9 6 Norte 15 Nordeste 0 -- -- 88
2018-01-21 00:00:00 10.2 8 Nordeste 17 Norte 0 -- -- 85
2018-01-20 23:00:00 9.7 10 Norte 17 Norte 0 -- -- 84
2018-01-20 22:00:00 8.7 8 Nordeste 14 Nordeste 0 -- -- 92
2018-01-20 21:00:00 8.1 6 Norte 11 Norte 0 -- -- 98
2018-01-20 20:00:00 9.2 3 Norte 6 Norte 0 -- -- 97
2018-01-20 19:00:00 12.6 0 Calma 9 Oeste 0 -- -- 88
2018-01-20 18:00:00 13.6 5 Oeste 13 Oeste 0 -- -- 91
2018-01-20 17:00:00 14.4 8 Oeste 13 Oeste 0 -- -- 84
2018-01-20 16:00:00 14.9 6 Sudoeste 13 Sur 0 -- -- 80
2018-01-20 15:00:00 15.3 8 Sudoeste 13 Sudoeste 0 -- -- 72
2018-01-20 14:00:00 15.5 8 Sudoeste 12 Sudoeste 0 -- -- 68
2018-01-20 13:00:00 15.1 7 Oeste 11 Oeste 0 -- -- 69
2018-01-20 12:00:00 13 3 Este 11 Nordeste 0 -- -- 80
2018-01-20 11:00:00 9.6 4 Este 13 Nordeste 0 -- -- 97
2018-01-20 10:00:00 5.3 4 Nordeste 10 Este 0 -- -- 100
2018-01-20 09:00:00 0.9 4 Este 7 Este 0 -- -- 100
2018-01-20 08:00:00 1.6 3 Este 5 Nordeste 0 -- -- 100
2018-01-20 07:00:00 1.7 5 Nordeste 7 Este 0 -- -- 100
2018-01-20 06:00:00 1.8 5 Nordeste 7 Nordeste 0 -- -- 99
2018-01-20 05:00:00 2.7 2 Este 5 Norte 0 -- -- 98
2018-01-20 04:00:00 4.7 4 Este 9 Nordeste 0 -- -- 97
2018-01-20 03:00:00 5.9 6 Nordeste 10 Este 0 -- -- 100
2018-01-20 02:00:00 5.1 5 Nordeste 8 Nordeste 0 -- -- 98
2018-01-20 01:00:00 5.3 3 Nordeste 7 Norte 0 -- -- 98
2018-01-20 00:00:00 6 5 Nordeste 8 Nordeste 0 -- -- 96
2018-01-19 23:00:00 5.6 6 Nordeste 8 Norte 0 -- -- 99
2018-01-19 22:00:00 5.7 5 Norte 8 Norte 0 -- -- 97
2018-01-19 21:00:00 7.4 0 Calma 5 Nordeste 0 -- -- 96
2018-01-19 20:00:00 9.5 0 Calma 6 Nordeste 0 -- -- 93
2018-01-19 19:00:00 12.5 0 Calma 9 Sudoeste 0 -- -- 87
2018-01-19 18:00:00 15.3 4 Sudoeste 11 Sudoeste 0 -- -- 79
2018-01-19 17:00:00 16 6 Sudoeste 13 Sudoeste 0 -- -- 76
2018-01-19 16:00:00 16.7 9 Sudoeste 15 Sudoeste 0 -- -- 72
2018-01-19 15:00:00 17.2 8 Sur 14 Sur 0 -- -- 66
2018-01-19 14:00:00 18.3 6 Nordeste 16 Norte 0 -- -- 55
2018-01-19 13:00:00 16.7 5 Norte 10 Norte 0 -- -- 60
2018-01-19 12:00:00 13.9 6 Norte 18 Nordeste 0 -- -- 71
2018-01-19 11:00:00 11 9 Nordeste 20 Nordeste 0 -- -- 80
2018-01-19 10:00:00 8 8 Norte 18 Norte 0 -- -- 91
2018-01-19 09:00:00 6.1 9 Norte 18 Nordeste 0 -- -- 96
2018-01-19 08:00:00 5.8 9 Norte 15 Nordeste 0 -- -- 97
2018-01-19 07:00:00 4.8 5 Nordeste 11 Nordeste 0 -- -- 98
2018-01-19 06:00:00 6.2 4 Sudeste 12 Norte 0 -- -- 97
2018-01-19 05:00:00 6.1 6 Nordeste 10 Norte 0 -- -- 98
2018-01-19 04:00:00 6.3 4 Norte 8 Nordeste 0 -- -- 97
2018-01-19 03:00:00 6.9 4 Este 9 Nordeste 0 -- -- 96
2018-01-19 02:00:00 7.5 5 Nordeste 10 Nordeste 0 -- -- 94
2018-01-19 01:00:00 8.2 4 Nordeste 18 Sudoeste 0 -- -- 93
2018-01-19 00:00:00 8.7 5 Nordeste 12 Nordeste 0 -- -- 90
2018-01-18 23:00:00 8.9 5 Nordeste 10 Nordeste 0 -- -- 90
2018-01-18 22:00:00 8.8 5 Nordeste 9 Nordeste 0 -- -- 91
2018-01-18 21:00:00 8.4 6 Norte 9 Norte 0 -- -- 93
2018-01-18 20:00:00 8.9 3 Nordeste 8 Norte 0 -- -- 92
2018-01-18 19:00:00 11.4 4 Norte 6 Norte 0 -- -- 88
2018-01-18 18:00:00 15 3 Oeste 7 Oeste 0 -- -- 76
2018-01-18 17:00:00 16.2 4 Oeste 14 Sudoeste 0 -- -- 67
2018-01-18 16:00:00 17.9 9 Oeste 20 Este 0 -- -- 63
2018-01-18 15:00:00 19.8 11 Sudeste 23 Sudeste 0 -- -- 46
2018-01-18 14:00:00 18.7 8 Este 20 Este 0 -- -- 48
2018-01-18 13:00:00 17.1 12 Este 27 Este 0 -- -- 53
2018-01-18 12:00:00 15.5 10 Este 26 Este 0 -- -- 57
2018-01-18 11:00:00 13.1 9 Este 17 Sudeste 0 -- -- 63
2018-01-18 10:00:00 8.5 7 Nordeste 14 Nordeste 0 -- -- 84
2018-01-18 09:00:00 3.9 6 Nordeste 10 Nordeste 0 -- -- 98
2018-01-18 08:00:00 3.8 5 Norte 9 Norte 0 -- -- 97
2018-01-18 07:00:00 4.7 5 Norte 10 Norte 0 -- -- 96
2018-01-18 06:00:00 4.5 6 Nordeste 10 Nordeste 0 -- -- 96
2018-01-18 05:00:00 4.8 5 Nordeste 9 Nordeste 0 -- -- 93
2018-01-18 04:00:00 4.9 6 Nordeste 8 Nordeste 0 -- -- 93
2018-01-18 03:00:00 7.4 3 Norte 9 Norte 0 -- -- 84
2018-01-18 02:00:00 8.2 6 Nordeste 14 Norte 0 -- -- 82
2018-01-18 01:00:00 8.7 7 Nordeste 14 Norte 0 -- -- 84
2018-01-18 00:00:00 8.6 6 Norte 13 Nordeste 0 -- -- 84
2018-01-17 23:00:00 8.1 5 Nordeste 8 Nordeste 0 -- -- 88
2018-01-17 22:00:00 10.4 5 Nordeste 14 Nordeste 0 -- -- 82
2018-01-17 21:00:00 11.2 6 Nordeste 14 Nordeste 0 -- -- 83
2018-01-17 20:00:00 11.5 8 Nordeste 12 Nordeste 0 -- -- 90
2018-01-17 19:00:00 13.5 5 Nordeste 8 Nordeste 0 -- -- 85
2018-01-17 18:00:00 17.5 0 Calma 6 Noroeste 0 -- -- 72
2018-01-17 17:00:00 18 4 Sudoeste 15 Sudoeste 0 -- -- 68
2018-01-17 16:00:00 20.8 5 Este 17 Este 0 -- -- 52
2018-01-17 15:00:00 19.8 7 Nordeste 23 Norte 0 -- -- 57
2018-01-17 14:00:00 18.6 10 Nordeste 24 Nordeste 0 -- -- 63
2018-01-17 13:00:00 17.1 12 Nordeste 28 Nordeste 0 -- -- 68
2018-01-17 12:00:00 15.9 12 Nordeste 26 Nordeste 0 -- -- 73
2018-01-17 11:00:00 13.9 9 Nordeste 21 Norte 0 -- -- 85
2018-01-17 10:00:00 9.7 4 Nordeste 8 Nordeste 0 -- -- 100
2018-01-17 09:00:00 5.8 3 Este 8 Este 0 -- -- 100
2018-01-17 08:00:00 7 4 Este 7 Nordeste 0 -- -- 100
2018-01-17 07:00:00 8.3 4 Este 8 Este 0 -- -- 98
2018-01-17 06:00:00 11.1 3 Norte 8 Norte 0 -- -- 98
2018-01-17 05:00:00 11.3 4 Nordeste 13 Norte 0 -- -- 100
2018-01-17 04:00:00 8.5 6 Nordeste 11 Nordeste 0 -- -- 100
2018-01-17 03:00:00 8 4 Nordeste 10 Nordeste 0 -- -- 98
2018-01-17 02:00:00 8.8 6 Norte 10 Norte 0 -- -- 98
2018-01-17 01:00:00 10.6 3 Nordeste 8 Nordeste 0 -- -- 93
2018-01-17 00:00:00 12.5 5 Nordeste 13 Nordeste 0 -- -- 90
2018-01-16 23:00:00 13 4 Nordeste 10 Nordeste 0 -- -- 88
2018-01-16 22:00:00 13 5 Nordeste 19 Nordeste 0 -- -- 87
2018-01-16 21:00:00 12.4 4 Nordeste 12 Nordeste 0 -- -- 88
2018-01-16 20:00:00 12.9 5 Nordeste 19 Nordeste 0 -- -- 84
2018-01-16 19:00:00 14.2 10 Nordeste 31 Nordeste 0 -- -- 78
2018-01-16 18:00:00 16.3 13 Nordeste 34 Norte 0 -- -- 70
2018-01-16 17:00:00 18 14 Nordeste 30 Nordeste 0 -- -- 64
2018-01-16 16:00:00 18.4 12 Norte 27 Norte 0 -- -- 61
2018-01-16 15:00:00 18.1 10 Nordeste 20 Nordeste 0 -- -- 58
2018-01-16 14:00:00 15.9 5 Noroeste 11 Norte 0 -- -- 64
2018-01-16 13:00:00 13.5 2 Sudoeste 8 Oeste 0 -- -- 73
2018-01-16 12:00:00 11.6 4 Nordeste 8 Nordeste 0 -- -- 73
2018-01-16 11:00:00 9.2 0 Calma 4 Nordeste 0 -- -- 84
2018-01-16 10:00:00 6.1 3 Nordeste 12 Este 0 -- -- 93
2018-01-16 09:00:00 4.2 7 Nordeste 15 Nordeste 0 -- -- 96
2018-01-16 08:00:00 2.3 5 Nordeste 9 Este 0 -- -- 99
2018-01-16 07:00:00 2.6 4 Nordeste 9 Nordeste 0 -- -- 98
2018-01-16 06:00:00 3 5 Este 12 Nordeste 0 -- -- 98
2018-01-16 05:00:00 3 8 Nordeste 11 Nordeste 0 -- -- 97
2018-01-16 04:00:00 3.5 6 Este 10 Nordeste 0 -- -- 96
2018-01-16 03:00:00 3.3 5 Nordeste 9 Nordeste 0 -- -- 96
2018-01-16 02:00:00 3 6 Nordeste 9 Este 0 -- -- 97
2018-01-16 01:00:00 3.6 6 Nordeste 9 Nordeste 0 -- -- 95
2018-01-16 00:00:00 3.9 6 Nordeste 9 Este 0 -- -- 94
2018-01-15 23:00:00 4 6 Este 8 Nordeste 0 -- -- 95
2018-01-15 22:00:00 4.5 5 Nordeste 9 Nordeste 0 -- -- 93
2018-01-15 21:00:00 5.1 6 Nordeste 8 Nordeste 0 -- -- 93
2018-01-15 20:00:00 6.8 5 Nordeste 6 Nordeste 0 -- -- 88
2018-01-15 19:00:00 10.4 4 Norte 8 Norte 0 -- -- 76
2018-01-15 18:00:00 14.9 3 Sudeste 12 Sudeste 0 -- -- 57
2018-01-15 17:00:00 15.8 7 Sudeste 14 Sudeste 0 -- -- 51
2018-01-15 16:00:00 16.2 8 Sur 18 Sudeste 0 -- -- 50
2018-01-15 15:00:00 15.4 8 Este 18 Este 0 -- -- 48
2018-01-15 14:00:00 14.2 10 Este 25 Este 0 -- -- 55
2018-01-15 13:00:00 13.5 9 Este 23 Este 0 -- -- 56
2018-01-15 12:00:00 11.9 11 Este 26 Este 0 -- -- 63
2018-01-15 11:00:00 9.9 8 Este 18 Nordeste 0 -- -- 74
2018-01-15 10:00:00 5.9 9 Nordeste 14 Este 0 -- -- 93
2018-01-15 09:00:00 1.6 5 Nordeste 10 Nordeste 0 -- -- 99
2018-01-15 08:00:00 2.3 5 Este 10 Nordeste 0 -- -- 98
2018-01-15 07:00:00 1.9 5 Nordeste 10 Nordeste 0 -- -- 98
2018-01-15 06:00:00 2.6 6 Nordeste 10 Nordeste 0 -- -- 99
2018-01-15 05:00:00 2.6 5 Nordeste 9 Nordeste 0 -- -- 99
2018-01-15 04:00:00 2.8 6 Nordeste 9 Nordeste 0 -- -- 98
2018-01-15 03:00:00 3.1 5 Nordeste 10 Nordeste 0 -- -- 97
2018-01-15 02:00:00 3.5 5 Nordeste 8 Nordeste 0 -- -- 97
2018-01-15 01:00:00 3.5 4 Nordeste 9 Nordeste 0 -- -- 95
2018-01-15 00:00:00 3.6 4 Nordeste 8 Norte 0 -- -- 94
2018-01-14 23:00:00 4.6 5 Nordeste 11 Nordeste 0 -- -- 92
2018-01-14 22:00:00 5.1 5 Nordeste 9 Norte 0 -- -- 92
2018-01-14 21:00:00 6.1 5 Norte 10 Norte 0 -- -- 88
2018-01-14 20:00:00 6.7 5 Nordeste 7 Nordeste 0 -- -- 86
2018-01-14 19:00:00 9.7 3 Norte 13 Norte 0 -- -- 75
2018-01-14 18:00:00 12.7 8 Norte 23 Norte 0 -- -- 62
2018-01-14 17:00:00 13.6 10 Norte 29 Norte 0 -- -- 57
2018-01-14 16:00:00 14.1 14 Norte 26 Norte 0 -- -- 57
2018-01-14 15:00:00 13.8 13 Norte 28 Norte 0 -- -- 59
2018-01-14 14:00:00 13.3 12 Norte 32 Norte 0 -- -- 65
2018-01-14 13:00:00 13 13 Norte 26 Norte 0 -- -- 68
2018-01-14 12:00:00 11.3 9 Norte 21 Noroeste 0 -- -- 86
2018-01-14 11:00:00 8.4 5 Norte 13 Norte 0 -- -- 100
2018-01-14 10:00:00 7.6 2 Nordeste 9 Nordeste 0 -- -- 100
2018-01-14 09:00:00 6.5 2 Nordeste 8 Nordeste 0.2 -- -- 100
2018-01-14 08:00:00 6.1 4 Nordeste 8 Este 0 -- -- 100
2018-01-14 07:00:00 5.8 3 Este 8 Este 0 -- -- 100
2018-01-14 06:00:00 5.9 4 Este 8 Nordeste 0 -- -- 100
2018-01-14 05:00:00 6.4 3 Este 8 Nordeste 0 -- -- 100
2018-01-14 04:00:00 6.8 4 Norte 8 Norte 0 -- -- 100
2018-01-14 03:00:00 7.1 4 Nordeste 9 Norte 0 -- -- 100
2018-01-14 02:00:00 7.8 4 Norte 17 Noroeste 0.2 -- -- 100
2018-01-14 01:00:00 6.1 4 Norte 9 Norte 0 -- -- 100
2018-01-14 00:00:00 5.5 4 Norte 10 Noroeste 0 -- -- 100
2018-01-13 23:00:00 5.1 4 Norte 7 Norte 0 -- -- 98
2018-01-13 22:00:00 5.8 3 Norte 8 Noroeste 0 -- -- 95
2018-01-13 21:00:00 8.1 5 Noroeste 10 Norte 0 -- -- 92
2018-01-13 20:00:00 9.3 6 Noroeste 11 Noroeste 0 -- -- 88
2018-01-13 19:00:00 11 5 Noroeste 13 Norte 0 -- -- 81
2018-01-13 18:00:00 13 6 Norte 26 Nordeste 0 -- -- 75
2018-01-13 17:00:00 15.7 10 Norte 24 Norte 0 -- -- 65
2018-01-13 16:00:00 15.4 9 Norte 29 Norte 0 -- -- 71
2018-01-13 15:00:00 14.1 11 Norte 23 Norte 0 -- -- 82
2018-01-13 14:00:00 11.9 8 Norte 14 Noroeste 0 -- -- 100
2018-01-13 13:00:00 9 6 Nordeste 19 Sudeste 0.4 -- -- 100
2018-01-13 12:00:00 7.9 10 Este 22 Nordeste 11.6 -- -- 100
2018-01-13 11:00:00 7.5 6 Sudeste 15 Este 3.4 -- -- 100
2018-01-13 10:00:00 7 8 Este 15 Este 0.2 -- -- 98
2018-01-13 09:00:00 6.8 7 Este 13 Sudeste 0 -- -- 97
2018-01-13 08:00:00 6.4 6 Este 11 Este 0 -- -- 98
2018-01-13 07:00:00 5.7 7 Este 12 Este 0 -- -- 98
2018-01-13 06:00:00 5.4 6 Este 10 Este 0 -- -- 99
2018-01-13 05:00:00 5.4 5 Este 9 Este 0 -- -- 98
2018-01-13 04:00:00 5.4 5 Este 9 Este 0 -- -- 98
2018-01-13 03:00:00 5.3 5 Este 8 Este 0 -- -- 99
2018-01-13 02:00:00 5.7 5 Este 9 Nordeste 0 -- -- 99
2018-01-13 01:00:00 5.8 5 Nordeste 8 Este 0 -- -- 99
2018-01-13 00:00:00 5.7 4 Nordeste 7 Este 0 -- -- 98
2018-01-12 23:00:00 5.7 4 Nordeste 6 Nordeste 0 -- -- 98
2018-01-12 22:00:00 5.7 4 Nordeste 6 Nordeste 0 -- -- 98
2018-01-12 21:00:00 5.6 4 Norte 6 Norte 0 -- -- 97
2018-01-12 20:00:00 6.4 2 Nordeste 4 Este 0 -- -- 95
2018-01-12 19:00:00 8.3 3 Norte 4 Norte 0 -- -- 90
2018-01-12 18:00:00 11.4 0 Calma 4 Sudoeste 0 -- -- 80
2018-01-12 17:00:00 12.4 3 Sur 8 Sudoeste 0 -- -- 70
2018-01-12 16:00:00 12.9 5 Oeste 8 Oeste 0 -- -- 65
2018-01-12 15:00:00 12.3 5 Sudoeste 11 Sudoeste 0 -- -- 67
2018-01-12 14:00:00 12.7 5 Oeste 12 Sur 0 -- -- 63
2018-01-12 13:00:00 12.1 3 Sudeste 12 Este 0 -- -- 70
2018-01-12 12:00:00 10.5 3 Este 12 Este 0 -- -- 78
2018-01-12 11:00:00 7.8 8 Este 14 Este 0 -- -- 93
2018-01-12 10:00:00 4.9 7 Nordeste 12 Este 0 -- -- 100
2018-01-12 09:00:00 2.4 7 Este 11 Este 0 -- -- 100
2018-01-12 08:00:00 2.6 6 Nordeste 10 Norte 0 -- -- 100
2018-01-12 07:00:00 2.7 4 Nordeste 12 Norte 0 -- -- 100
2018-01-12 06:00:00 3.4 5 Norte 9 Norte 0 -- -- 100
2018-01-12 05:00:00 4.1 4 Norte 9 Nordeste 0 -- -- 100
2018-01-12 04:00:00 4.7 5 Norte 9 Norte 0 -- -- 100
2018-01-12 03:00:00 5.8 4 Norte 12 Nordeste 0 -- -- 99
2018-01-12 02:00:00 6.7 6 Nordeste 13 Norte 0 -- -- 99
2018-01-12 01:00:00 6.7 7 Norte 13 Norte 0 -- -- 100
2018-01-12 00:00:00 7 7 Norte 12 Norte 0 -- -- 99
2018-01-11 23:00:00 6.5 5 Norte 9 Norte 0 -- -- 97
2018-01-11 22:00:00 7.7 4 Norte 9 Noroeste 0 -- -- 95
2018-01-11 21:00:00 8.1 5 Norte 9 Noroeste 0 -- -- 93
2018-01-11 20:00:00 9.4 4 Noroeste 10 Noroeste 0 -- -- 86
2018-01-11 19:00:00 11.6 5 Norte 12 Norte 0 -- -- 77
2018-01-11 18:00:00 14.7 8 Norte 22 Norte 0 -- -- 67
2018-01-11 17:00:00 15.1 9 Norte 26 Noroeste 0 -- -- 67
2018-01-11 16:00:00 17 10 Norte 28 Norte 0 -- -- 58
2018-01-11 15:00:00 16.8 14 Norte 32 Norte 0 -- -- 58
2018-01-11 14:00:00 15.9 15 Norte 34 Noroeste 0 -- -- 63
2018-01-11 13:00:00 15.2 13 Norte 24 Noroeste 0 -- -- 69
2018-01-11 12:00:00 13.3 8 Noroeste 17 Norte 0 -- -- 81
2018-01-11 11:00:00 10.3 7 Noroeste 15 Noroeste 0 -- -- 95
2018-01-11 10:00:00 6.9 6 Norte 12 Norte 0 -- -- 100
2018-01-11 09:00:00 2.9 3 Norte 6 Norte 0.2 -- -- 100
2018-01-11 08:00:00 3 4 Nordeste 6 Nordeste 0 -- -- 100
2018-01-11 07:00:00 4.1 3 Nordeste 5 Norte 0 -- -- 100
2018-01-11 06:00:00 4.6 4 Norte 7 Noroeste 0 -- -- 99
2018-01-11 05:00:00 4.8 4 Norte 8 Norte 0 -- -- 100
2018-01-11 04:00:00 4.9 3 Norte 6 Noroeste 0 -- -- 99
2018-01-11 03:00:00 5.7 4 Norte 8 Noroeste 0 -- -- 100
2018-01-11 02:00:00 6.7 3 Noroeste 9 Norte 0 -- -- 97
2018-01-11 01:00:00 8.1 4 Norte 9 Noroeste 0 -- -- 96
2018-01-11 00:00:00 9.4 4 Norte 14 Noroeste 0 -- -- 95
2018-01-10 23:00:00 10.1 7 Norte 14 Norte 0 -- -- 95
2018-01-10 22:00:00 10.8 5 Noroeste 19 Noroeste 0 -- -- 93
2018-01-10 21:00:00 12 8 Norte 18 Norte 0 -- -- 89
2018-01-10 20:00:00 12.7 6 Norte 19 Noroeste 0 -- -- 87
2018-01-10 19:00:00 13.6 8 Noroeste 37 Norte 0 -- -- 87
2018-01-10 18:00:00 15.5 18 Noroeste 33 Noroeste 0 -- -- 87
2018-01-10 17:00:00 16.4 18 Noroeste 31 Oeste 0 -- -- 86
2018-01-10 16:00:00 16.5 17 Oeste 32 Oeste 0 -- -- 86
2018-01-10 15:00:00 16.6 18 Oeste 28 Oeste 0 -- -- 85
2018-01-10 14:00:00 16.2 14 Oeste 23 Oeste 0 -- -- 86
2018-01-10 13:00:00 15.4 10 Oeste 18 Noroeste 0 -- -- 88
2018-01-10 12:00:00 14.3 7 Oeste 14 Noroeste 0 -- -- 100
2018-01-10 11:00:00 12.4 3 Sudoeste 5 Sur 0 -- -- 100
2018-01-10 10:00:00 9.3 0 Calma 4 Este 0 -- -- 100
2018-01-10 09:00:00 7.9 0 Calma 5 Este 0 -- -- 100
2018-01-10 08:00:00 8.7 0 Calma 6 Nordeste 0 -- -- 100
2018-01-10 07:00:00 9.6 4 Nordeste 10 Nordeste 0 -- -- 100
2018-01-10 06:00:00 9.9 5 Norte 14 Norte 0 -- -- 100
2018-01-10 05:00:00 10.4 7 Norte 18 Norte 0 -- -- 100
2018-01-10 04:00:00 10 4 Norte 13 Norte 0 -- -- 99
2018-01-10 03:00:00 10.8 6 Norte 15 Norte 0 -- -- 99
2018-01-10 02:00:00 11.6 5 Noroeste 15 Norte 0 -- -- 98
2018-01-10 01:00:00 12.1 8 Noroeste 15 Noroeste 0 -- -- 99
2018-01-10 00:00:00 12.7 6 Noroeste 17 Noroeste 0 -- -- 99
2018-01-09 23:00:00 13.5 8 Noroeste 21 Noroeste 0 -- -- 100
2018-01-09 22:00:00 14.2 14 Noroeste 30 Noroeste 0.2 -- -- 100
2018-01-09 21:00:00 14.9 18 Oeste 30 Oeste 0.2 -- -- 100
2018-01-09 20:00:00 14 14 Sudoeste 34 Sudoeste 0.8 -- -- 100
2018-01-09 19:00:00 12.9 15 Sudoeste 36 Oeste 0.6 -- -- 100
2018-01-09 18:00:00 12.9 18 Sudoeste 32 Sudoeste 0.4 -- -- 100
2018-01-09 17:00:00 12.6 17 Sudoeste 31 Sudoeste 4.2 -- -- 100
2018-01-09 16:00:00 11.8 7 Sudoeste 25 Oeste 4.2 -- -- 100
2018-01-09 15:00:00 10.4 7 Noroeste 18 Noroeste 6 -- -- 100
2018-01-09 14:00:00 8.8 10 Sudeste 20 Sudeste 1 -- -- 100
2018-01-09 13:00:00 7.7 9 Este 16 Este 1.6 -- -- 100
2018-01-09 12:00:00 7.1 7 Este 15 Sudeste 0.6 -- -- 99
2018-01-09 11:00:00 6.2 5 Este 11 Este 0 -- -- 97
2018-01-09 10:00:00 4.7 6 Este 14 Este 0 -- -- 97
2018-01-09 09:00:00 3.7 7 Este 14 Este 0 -- -- 98
2018-01-09 08:00:00 3.3 6 Este 15 Este 0 -- -- 99
2018-01-09 07:00:00 2.9 6 Este 13 Este 0 -- -- 100
2018-01-09 06:00:00 2 6 Este 9 Este 0 -- -- 100
2018-01-09 05:00:00 1.4 4 Nordeste 6 Nordeste 0 -- -- 100
2018-01-09 04:00:00 1.4 4 Nordeste 8 Este 0 -- -- 99
2018-01-09 03:00:00 2.1 5 Este 10 Este 0 -- -- 99
2018-01-09 02:00:00 2.1 5 Nordeste 9 Nordeste 0 -- -- 98
2018-01-09 01:00:00 2.8 4 Nordeste 9 Norte 0 -- -- 97
2018-01-09 00:00:00 3.3 5 Norte 10 Nordeste 0 -- -- 97
2018-01-08 23:00:00 4.4 5 Nordeste 10 Norte 0 -- -- 94
2018-01-08 22:00:00 5 6 Nordeste 9 Nordeste 0 -- -- 94
2018-01-08 21:00:00 6.1 6 Nordeste 11 Norte 0 -- -- 91
2018-01-08 20:00:00 6.9 4 Norte 8 Norte 0 -- -- 91
2018-01-08 19:00:00 8.9 3 Norte 5 Norte 0 -- -- 85
2018-01-08 18:00:00 11.9 2 Sudoeste 5 Sudoeste 0 -- -- 68
2018-01-08 17:00:00 11.7 0 Calma 8 Nordeste 0 -- -- 67
2018-01-08 16:00:00 11.8 4 Nordeste 14 Sudeste 0 -- -- 66
2018-01-08 15:00:00 11.6 6 Este 22 Nordeste 0 -- -- 68
2018-01-08 14:00:00 11.2 9 Este 22 Nordeste 0 -- -- 72
2018-01-08 13:00:00 10.2 10 Nordeste 24 Este 0 -- -- 80
2018-01-08 12:00:00 8.8 7 Este 17 Nordeste 0 -- -- 92
2018-01-08 11:00:00 6.5 5 Nordeste 12 Norte 0 -- -- 100
2018-01-08 10:00:00 6.2 5 Nordeste 11 Este 0 -- -- 100
2018-01-08 09:00:00 5.2 4 Nordeste 7 Norte 0 -- -- 100
2018-01-08 08:00:00 5.1 4 Nordeste 8 Este 0.2 -- -- 100
2018-01-08 07:00:00 5.4 4 Este 9 Sudeste 0 -- -- 100
2018-01-08 06:00:00 5.9 4 Este 8 Este 0.4 -- -- 99
2018-01-08 05:00:00 6.4 4 Norte 12 Nordeste 1.6 -- -- 98
2018-01-08 04:00:00 6.5 4 Nordeste 12 Norte 0 -- -- 92
2018-01-08 03:00:00 6.2 8 Norte 13 Nordeste 0 -- -- 91
2018-01-08 02:00:00 5.9 8 Norte 15 Norte 0 -- -- 91
2018-01-08 01:00:00 4.5 6 Norte 10 Norte 0 -- -- 97
2018-01-08 00:00:00 3.7 4 Norte 10 Norte 0 -- -- 96
2018-01-07 23:00:00 3.6 5 Norte 9 Norte 0 -- -- 95
2018-01-07 22:00:00 4.6 4 Norte 6 Noroeste 0 -- -- 92
2018-01-07 21:00:00 7.1 4 Noroeste 6 Noroeste 0 -- -- 90
2018-01-07 20:00:00 7.3 0 Calma 4 Sudoeste 0 -- -- 85
2018-01-07 19:00:00 8.9 0 Calma 4 Norte 0 -- -- 77
2018-01-07 18:00:00 11.7 4 Norte 13 Noroeste 0 -- -- 60
2018-01-07 17:00:00 11.5 4 Noroeste 12 Nordeste 0 -- -- 60
2018-01-07 16:00:00 12.3 5 Norte 16 Noroeste 0 -- -- 58
2018-01-07 15:00:00 11 5 Norte 19 Norte 0 -- -- 63
2018-01-07 14:00:00 10.8 8 Norte 19 Nordeste 0 -- -- 63
2018-01-07 13:00:00 9.9 9 Norte 22 Nordeste 0 -- -- 68
2018-01-07 12:00:00 9.1 12 Norte 24 Norte 0 -- -- 73
2018-01-07 11:00:00 7.3 7 Norte 21 Norte 0 -- -- 85
2018-01-07 10:00:00 4.9 6 Norte 15 Norte 0 -- -- 99
2018-01-07 09:00:00 3.3 4 Norte 15 Noroeste 0 -- -- 96
2018-01-07 08:00:00 4.1 7 Norte 15 Norte 0 -- -- 96
2018-01-07 07:00:00 3.3 9 Norte 16 Noroeste 0 -- -- 99
2018-01-07 06:00:00 1.5 3 Norte 8 Norte 0 -- -- 98
2018-01-07 05:00:00 2.1 5 Norte 10 Norte 0 -- -- 96
2018-01-07 04:00:00 2.8 5 Norte 9 Norte 0 -- -- 96
2018-01-07 03:00:00 3.6 6 Norte 13 Norte 0 -- -- 95
2018-01-07 02:00:00 3.8 4 Norte 11 Norte 0 -- -- 90
2018-01-07 01:00:00 4.8 5 Noroeste 9 Norte 0 -- -- 86
2018-01-07 00:00:00 5.5 4 Norte 12 Norte 0 -- -- 82
2018-01-06 23:00:00 6.5 6 Norte 13 Norte 0 -- -- 79
2018-01-06 22:00:00 7.4 6 Norte 19 Norte 0 -- -- 73
2018-01-06 21:00:00 7.8 9 Norte 20 Norte 0 -- -- 68
2018-01-06 20:00:00 7.8 6 Noroeste 12 Noroeste 0 -- -- 68
2018-01-06 19:00:00 8.7 5 Norte 20 Norte 0 -- -- 62
2018-01-06 18:00:00 10.5 10 Norte 30 Norte 0 -- -- 52
2018-01-06 17:00:00 11.6 11 Norte 34 Norte 0 -- -- 50
2018-01-06 16:00:00 12.7 15 Norte 37 Noroeste 0 -- -- 48
2018-01-06 15:00:00 13.2 18 Norte 40 Noroeste 0 -- -- 48
2018-01-06 14:00:00 12.6 17 Norte 38 Norte 0 -- -- 55
2018-01-06 13:00:00 11.8 17 Norte 34 Norte 0 -- -- 60
2018-01-06 12:00:00 10.8 21 Norte 41 Norte 0 -- -- 69
2018-01-06 11:00:00 9.2 12 Norte 32 Norte 0 -- -- 82
2018-01-06 10:00:00 7.5 14 Norte 29 Norte 0 -- -- 92
2018-01-06 09:00:00 6.5 9 Norte 22 Norte 0 -- -- 96
2018-01-06 08:00:00 7.2 10 Norte 25 Norte 0 -- -- 96
2018-01-06 07:00:00 7.6 9 Norte 22 Norte 0 -- -- 96
2018-01-06 06:00:00 8.2 9 Norte 30 Norte 0 -- -- 98
2018-01-06 05:00:00 8.8 6 Norte 16 Norte 0 -- -- 100
2018-01-06 04:00:00 9.1 7 Norte 14 Noroeste 0 -- -- 100
2018-01-06 03:00:00 8.9 4 Norte 12 Nordeste 0.2 -- -- 100
2018-01-06 02:00:00 8.9 7 Nordeste 26 Nordeste 0.4 -- -- 99
2018-01-06 01:00:00 9.4 10 Nordeste 27 Norte 0.4 -- -- 97
2018-01-06 00:00:00 10.1 17 Norte 30 Norte 4.8 -- -- 99
2018-01-05 23:00:00 10.9 4 Este 10 Noroeste 1 -- -- 100
2018-01-05 22:00:00 11.6 5 Noroeste 13 Noroeste 1 -- -- 100
2018-01-05 21:00:00 11.8 4 Noroeste 7 Oeste 0.2 -- -- 100
2018-01-05 20:00:00 11.8 0 Calma 12 Nordeste 0 -- -- 99
2018-01-05 19:00:00 12.4 4 Nordeste 59 Noroeste 6.4 -- -- 97
2018-01-05 18:00:00 15.4 22 Sudoeste 40 Oeste 0.2 -- -- 89
2018-01-05 17:00:00 15.7 20 Sudoeste 40 Sudoeste 0 -- -- 83
2018-01-05 16:00:00 16.1 22 Sudoeste 38 Oeste 0 -- -- 81
2018-01-05 15:00:00 16.2 17 Oeste 37 Oeste 0 -- -- 80
2018-01-05 14:00:00 15.9 16 Oeste 28 Oeste 0 -- -- 80
2018-01-05 13:00:00 15.9 17 Oeste 26 Sudoeste 0 -- -- 82
2018-01-05 12:00:00 15.8 6 Sudoeste 14 Sudoeste 0 -- -- 80
2018-01-05 11:00:00 14.8 6 Noroeste 13 Noroeste 0 -- -- 81
2018-01-05 10:00:00 12.4 2 Oeste 6 Noroeste 0 -- -- 98
2018-01-05 09:00:00 11.7 0 Calma 4 Sur 0 -- -- 97
2018-01-05 08:00:00 11.9 4 Sur 5 Sur 0 -- -- 94
2018-01-05 07:00:00 12.1 0 Calma 4 Nordeste 0 -- -- 92
2018-01-05 06:00:00 12.4 3 Nordeste 8 Norte 0 -- -- 90
2018-01-05 05:00:00 12.8 4 Noroeste 13 Noroeste 0 -- -- 85
2018-01-05 04:00:00 12 5 Noroeste 10 Noroeste 0 -- -- 99
2018-01-05 03:00:00 12.2 2 Noroeste 4 Noroeste 0 -- -- 99
2018-01-05 02:00:00 12.6 2 Noroeste 8 Noroeste 0 -- -- 99
2018-01-05 01:00:00 12.4 3 Norte 5 Noroeste 0 -- -- 100
2018-01-05 00:00:00 11.8 3 Noroeste 7 Noroeste 0 -- -- 99
2018-01-04 23:00:00 12 4 Noroeste 10 Noroeste 0 -- -- 96
2018-01-04 22:00:00 14 6 Noroeste 12 Oeste 0 -- -- 94
2018-01-04 21:00:00 14.3 7 Noroeste 13 Noroeste 0 -- -- 94
2018-01-04 20:00:00 14.2 6 Noroeste 12 Oeste 0 -- -- 96
2018-01-04 19:00:00 14.3 3 Noroeste 7 Oeste 0 -- -- 97
2018-01-04 18:00:00 14.4 4 Oeste 11 Sudoeste 0 -- -- 97
2018-01-04 17:00:00 14.5 8 Sudoeste 12 Sudoeste 0 -- -- 96
2018-01-04 16:00:00 14.9 6 Sudoeste 11 Sudoeste 0 -- -- 94
2018-01-04 15:00:00 15 5 Oeste 11 Noroeste 0 -- -- 90
2018-01-04 14:00:00 15.3 3 Noroeste 8 Norte 0 -- -- 88
2018-01-04 13:00:00 14.5 3 Norte 10 Noroeste 0 -- -- 94
2018-01-04 12:00:00 13.5 5 Norte 11 Norte 0 -- -- 100
2018-01-04 11:00:00 12.4 4 Norte 6 Norte 0 -- -- 100
2018-01-04 10:00:00 11.1 3 Nordeste 7 Este 0 -- -- 100
2018-01-04 09:00:00 10 4 Este 6 Nordeste 0 -- -- 100
2018-01-04 08:00:00 9.5 3 Este 6 Este 0 -- -- 100
2018-01-04 07:00:00 8.5 4 Nordeste 7 Nordeste 0 -- -- 100
2018-01-04 06:00:00 6.7 4 Nordeste 6 Este 0 -- -- 100
2018-01-04 05:00:00 7.5 2 Sur 9 Nordeste 0 -- -- 100
2018-01-04 04:00:00 7.3 4 Nordeste 7 Este 0 -- -- 100
2018-01-04 03:00:00 7.1 5 Nordeste 7 Nordeste 0 -- -- 100
2018-01-04 02:00:00 7.8 3 Norte 5 Nordeste 0 -- -- 99
2018-01-04 01:00:00 9.3 4 Este 8 Este 0 -- -- 100
2018-01-04 00:00:00 9.3 3 Nordeste 5 Nordeste 0 -- -- 97
2018-01-03 23:00:00 10.8 4 Nordeste 9 Nordeste 0 -- -- 95
2018-01-03 22:00:00 12 6 Nordeste 14 Nordeste 0 -- -- 93
2018-01-03 21:00:00 12.4 7 Nordeste 12 Norte 0 -- -- 91
2018-01-03 20:00:00 13.2 5 Norte 13 Norte 0 -- -- 88
2018-01-03 19:00:00 14.6 6 Nordeste 29 Norte 0 -- -- 83
2018-01-03 18:00:00 16.3 12 Norte 29 Norte 0 -- -- 78
2018-01-03 17:00:00 18.1 15 Norte 33 Norte 0 -- -- 73
2018-01-03 16:00:00 19.8 12 Norte 26 Norte 0 -- -- 67
2018-01-03 15:00:00 18.4 8 Oeste 18 Oeste 0 -- -- 71
2018-01-03 14:00:00 19.3 8 Norte 18 Norte 0 -- -- 68
2018-01-03 13:00:00 17.4 7 Nordeste 16 Sudeste 0 -- -- 74
2018-01-03 12:00:00 16.5 7 Este 13 Este 0 -- -- 78
2018-01-03 11:00:00 13.8 3 Este 6 Este 0 -- -- 94
2018-01-03 10:00:00 12.7 3 Este 7 Nordeste 0 -- -- 98
2018-01-03 09:00:00 12 0 Calma 10 Norte 0 -- -- 98
2018-01-03 08:00:00 11.9 3 Nordeste 13 Nordeste 0 -- -- 100
2018-01-03 07:00:00 10.8 7 Nordeste 13 Nordeste 0 -- -- 100
2018-01-03 06:00:00 7.9 6 Nordeste 10 Nordeste 0 -- -- 100
2018-01-03 05:00:00 7.5 4 Norte 8 Nordeste 0 -- -- 99
2018-01-03 04:00:00 8.3 4 Este 9 Nordeste 0 -- -- 97
2018-01-03 03:00:00 9.1 4 Nordeste 7 Nordeste 0 -- -- 96
2018-01-03 02:00:00 10.5 5 Nordeste 12 Nordeste 0 -- -- 95
2018-01-03 01:00:00 10.2 5 Nordeste 12 Nordeste 0 -- -- 93
2018-01-03 00:00:00 10.6 6 Nordeste 13 Norte 0 -- -- 95
2018-01-02 23:00:00 10.3 5 Nordeste 12 Nordeste 0 -- -- 93
2018-01-02 22:00:00 11.1 7 Nordeste 12 Nordeste 0 -- -- 91
2018-01-02 21:00:00 11.4 5 Norte 11 Norte 0 -- -- 88
2018-01-02 20:00:00 12.8 6 Norte 12 Nordeste 0 -- -- 82
2018-01-02 19:00:00 14.1 7 Norte 13 Norte 0 -- -- 77
2018-01-02 18:00:00 16.5 7 Norte 20 Norte 0 -- -- 69
2018-01-02 17:00:00 17.5 12 Norte 23 Nordeste 0 -- -- 64
2018-01-02 16:00:00 18.1 12 Nordeste 23 Noroeste 0 -- -- 62
2018-01-02 15:00:00 17.8 11 Nordeste 21 Nordeste 0 -- -- 62
2018-01-02 14:00:00 17.4 6 Norte 17 Nordeste 0 -- -- 64
2018-01-02 13:00:00 16 10 Nordeste 21 Nordeste 0 -- -- 68
2018-01-02 12:00:00 14.4 5 Nordeste 11 Nordeste 0 -- -- 80
2018-01-02 11:00:00 10.9 3 Nordeste 10 Nordeste 0 -- -- 98
2018-01-02 10:00:00 6.9 5 Nordeste 9 Nordeste 0 -- -- 100
2018-01-02 09:00:00 2.9 5 Nordeste 8 Norte 0 -- -- 100
2018-01-02 08:00:00 2.4 5 Nordeste 8 Nordeste 0 -- -- 100
2018-01-02 07:00:00 2.6 5 Nordeste 7 Nordeste 0 -- -- 100
2018-01-02 06:00:00 3.4 3 Nordeste 7 Nordeste 0 -- -- 100
2018-01-02 05:00:00 4 3 Nordeste 6 Norte 0 -- -- 98
2018-01-02 04:00:00 5.3 4 Nordeste 10 Nordeste 0 -- -- 99
2018-01-02 03:00:00 5.6 6 Nordeste 9 Norte 0 -- -- 100
2018-01-02 02:00:00 5.3 5 Nordeste 10 Nordeste 0 -- -- 99
2018-01-02 01:00:00 5 6 Norte 8 Norte 0 -- -- 97
2018-01-02 00:00:00 5.5 4 Nordeste 6 Norte 0 -- -- 96
2018-01-01 23:00:00 7 4 Nordeste 11 Norte 0 -- -- 91
2018-01-01 22:00:00 7.3 5 Nordeste 9 Nordeste 0 -- -- 90
2018-01-01 21:00:00 8.8 7 Nordeste 11 Nordeste 0 -- -- 85
2018-01-01 20:00:00 10.9 3 Nordeste 15 Nordeste 0 -- -- 75
2018-01-01 19:00:00 13.2 9 Nordeste 15 Nordeste 0 -- -- 65
2018-01-01 18:00:00 16 8 Nordeste 19 Norte 0 -- -- 55
2018-01-01 17:00:00 17.4 8 Norte 18 Norte 0 -- -- 50
2018-01-01 16:00:00 16.6 4 Oeste 12 Oeste 0 -- -- 70
2018-01-01 15:00:00 16.4 6 Sudoeste 12 Oeste 0 -- -- 69
2018-01-01 14:00:00 16.4 8 Sudoeste 11 Sur 0 -- -- 67
2018-01-01 13:00:00 15.9 4 Sudeste 11 Este 0 -- -- 70
2018-01-01 12:00:00 13.5 6 Nordeste 11 Nordeste 0 -- -- 80
2018-01-01 11:00:00 10.2 7 Nordeste 13 Nordeste 0 -- -- 97
2018-01-01 10:00:00 6.2 6 Este 11 Este 0 -- -- 100
2018-01-01 09:00:00 4 5 Nordeste 9 Nordeste 0 -- -- 100
2018-01-01 08:00:00 4.3 5 Nordeste 9 Nordeste 0 -- -- 100
2018-01-01 07:00:00 4.6 6 Nordeste 10 Nordeste 0 -- -- 100
2018-01-01 06:00:00 5 6 Nordeste 10 Nordeste 0 -- -- 100
2018-01-01 05:00:00 5.4 4 Nordeste 9 Norte 0 -- -- 100
2018-01-01 04:00:00 5.2 5 Norte 10 Norte 0 -- -- 100
2018-01-01 03:00:00 4.7 6 Nordeste 9 Nordeste 0 -- -- 100
2018-01-01 02:00:00 5.8 4 Este 9 Norte 0 -- -- 98
2018-01-01 01:00:00 7 3 Norte 9 Nordeste 0 -- -- 99
2018-01-01 00:00:00 8.9 4 Noroeste 8 Norte 0 -- -- 98
2017-12-31 23:00:00 9.8 5 Noroeste 8 Norte 0 -- -- 96
2017-12-31 22:00:00 11.4 2 Noroeste 8 Nordeste 0 -- -- 94
2017-12-31 21:00:00 13.2 3 Nordeste 16 Norte 0 -- -- 91
2017-12-31 20:00:00 15 10 Norte 25 Norte 0 -- -- 85
2017-12-31 19:00:00 15.9 10 Noroeste 28 Noroeste 0 -- -- 88
2017-12-31 18:00:00 16.3 15 Noroeste 30 Noroeste 0 -- -- 84
2017-12-31 17:00:00 17 18 Oeste 29 Oeste 0 -- -- 80
2017-12-31 16:00:00 17.5 14 Oeste 22 Oeste 0 -- -- 82
2017-12-31 15:00:00 17.1 10 Oeste 18 Oeste 0 -- -- 83
2017-12-31 14:00:00 16.7 7 Oeste 11 Oeste 0 -- -- 82
2017-12-31 13:00:00 14.8 3 Sudoeste 8 Oeste 0 -- -- 88
2017-12-31 12:00:00 14.2 4 Oeste 6 Oeste 0 -- -- 88
2017-12-31 11:00:00 12.6 2 Nordeste 5 Sudeste 0 -- -- 95
2017-12-31 10:00:00 11.7 5 Este 8 Sudeste 0 -- -- 98
2017-12-31 09:00:00 10.8 3 Nordeste 6 Norte 0 -- -- 100
2017-12-31 08:00:00 10.2 4 Nordeste 9 Norte 0 -- -- 100
2017-12-31 07:00:00 9 3 Norte 8 Nordeste 0 -- -- 100
2017-12-31 06:00:00 6.9 5 Norte 8 Norte 0 -- -- 100
2017-12-31 05:00:00 7.1 2 Nordeste 5 Nordeste 0 -- -- 99
2017-12-31 04:00:00 7.8 2 Nordeste 4 Nordeste 0 -- -- 99
2017-12-31 03:00:00 8.4 4 Nordeste 5 Nordeste 0 -- -- 98
2017-12-31 02:00:00 9.1 2 Nordeste 4 Nordeste 0 -- -- 98
2017-12-31 01:00:00 9.3 4 Nordeste 7 Nordeste 0 -- -- 97